Date String (YYYY-MM-DD hh:mm:ss) UTC,Instrument flags,absolute air pressure of the measurement (hPa),sample flow rate (lpm),inlet stack bypass flow (lpm),air temperature of the measurement (°C),ambient temperature measured by the external sensor (°C),aerosol sample conditioner tube jacket temperature (°C),OPC LED temperature (°C),internal box temperature (°C),relative humidity of the measurement (%),span deviation,mass concentration of particles derived from Lorenz-Mie calculation of OPC scattering (μg/m³),mass concentration of particles derived from Lorenz-Mie calculation of OPC scattering (μg/m³),mass concentration of particles derived from Lorenz-Mie calculation of OPC scattering (μg/m³)
DateTimeUTC,F1_M11,P_M11,Q1_M11,Q2_M11,T1_M11,T2_M11,T3_M11,T4_M11,T5_M11,U1_M11,ZSPAN_M11,X0_M11,X2_M11,X1_M11
2023-07-19 00:00:00,SystemResetWarning,0832.2,4.99,000.00,028.7,027.5,000.0,037.0,030.5,30.7,0000.6,0022.54,0006.95,0004.98
2023-07-19 00:01:00,SystemResetWarning,0832.3,4.98,000.00,028.8,027.3,000.0,036.9,030.5,30.7,0000.2,0019.68,0007.09,0005.10
2023-07-19 00:02:00,SystemResetWarning,0832.3,5.00,000.00,028.7,025.8,000.0,036.9,030.4,30.4,0000.1,0019.42,0007.20,0005.22
2023-07-19 00:03:00,SystemResetWarning,0832.3,5.01,000.00,028.7,025.5,000.0,036.8,030.2,30.7,0000.9,0019.76,0007.30,0005.33
2023-07-19 00:04:00,SystemResetWarning,0832.3,5.00,000.00,028.6,025.8,000.0,036.9,030.2,30.7,0000.2,0019.53,0007.28,0005.40
2023-07-19 00:05:00,SystemResetWarning,0832.3,5.00,000.00,028.6,026.1,000.0,036.9,030.2,30.8,0000.0,0019.23,0007.26,0005.44
2023-07-19 00:06:00,SystemResetWarning,0832.3,5.00,000.00,028.7,026.5,000.0,036.9,030.3,30.7,-000.1,0020.62,0007.24,0005.45
2023-07-19 00:07:00,SystemResetWarning,0832.4,5.00,000.00,028.7,026.9,000.0,037.0,030.4,30.7,0000.0,0020.99,0007.22,0005.45
2023-07-19 00:08:00,SystemResetWarning,0832.5,5.00,000.00,028.7,027.2,000.0,037.0,030.5,30.6,0000.0,0021.08,0007.30,0005.47
2023-07-19 00:09:00,SystemResetWarning,0832.5,4.99,000.00,028.8,026.3,000.0,036.9,030.4,30.8,0000.0,0022.84,0007.34,0005.50
2023-07-19 00:10:00,SystemResetWarning,0832.5,5.00,000.00,028.7,024.7,000.0,036.8,030.1,30.9,0000.0,0023.91,0007.38,0005.52
2023-07-19 00:11:00,SystemResetWarning,0832.5,5.02,000.00,028.6,024.4,000.0,036.8,030.0,31.1,0000.0,0023.47,0007.33,0005.55
2023-07-19 00:12:00,SystemResetWarning,0832.5,4.99,000.00,028.5,024.8,000.0,036.8,029.9,30.6,0000.0,0023.66,0007.36,0005.57
2023-07-19 00:13:00,SystemResetWarning,0832.5,5.00,000.00,028.5,025.3,000.0,036.8,029.9,30.6,0000.0,0024.18,0007.38,0005.58
2023-07-19 00:14:00,SystemResetWarning,0832.5,5.00,000.00,028.5,025.8,000.0,036.9,030.0,30.8,0000.0,0024.02,0007.34,0005.59
2023-07-19 00:15:00,SystemResetWarning,0832.5,5.00,000.00,028.5,026.2,000.0,036.9,030.1,30.7,0000.0,0023.53,0007.36,0005.59
2023-07-19 00:16:00,SystemResetWarning,0832.5,4.99,000.00,028.6,026.6,000.0,036.9,030.2,30.5,0000.0,0023.85,0007.37,0005.60
2023-07-19 00:17:00,SystemResetWarning,0832.5,5.00,000.00,028.6,027.0,000.0,036.9,030.3,30.6,0000.0,0023.72,0007.36,0005.61
2023-07-19 00:18:00,SystemResetWarning,0832.6,5.01,000.00,028.7,027.3,000.0,037.0,030.4,30.8,0000.0,0023.59,0007.43,0005.62
2023-07-19 00:19:00,SystemResetWarning,0832.7,4.98,000.00,028.7,027.3,000.0,037.0,030.5,30.7,0000.0,0023.91,0007.53,0005.64
2023-07-19 00:20:00,SystemResetWarning,0832.6,5.00,000.00,028.7,025.8,000.0,036.9,030.2,30.8,0000.0,0022.89,0007.54,0005.63
2023-07-19 00:21:00,SystemResetWarning,0832.7,5.00,000.00,028.6,024.6,000.0,036.8,030.0,30.9,0000.0,0021.29,0007.56,0005.63
2023-07-19 00:22:00,SystemResetWarning,0832.7,5.02,000.00,028.5,024.6,000.0,036.7,029.8,31.0,0000.0,0021.27,0007.61,0005.62
2023-07-19 00:23:00,SystemResetWarning,0832.7,5.01,000.00,028.4,024.9,000.0,036.8,029.8,31.3,0000.0,0021.44,0007.67,0005.62
2023-07-19 00:24:00,SystemResetWarning,0832.7,4.99,000.00,028.4,025.4,000.0,036.8,029.9,31.3,0000.0,0020.73,0007.61,0005.62
2023-07-19 00:25:00,SystemResetWarning,0832.7,5.00,000.00,028.5,025.9,000.0,036.8,030.0,31.1,0000.0,0020.56,0007.58,0005.61
2023-07-19 00:26:00,SystemResetWarning,0832.7,5.01,000.00,028.5,026.4,000.0,036.9,030.1,31.1,0000.0,0020.03,0007.61,0005.63
2023-07-19 00:27:00,SystemResetWarning,0832.7,5.00,000.00,028.5,026.7,000.0,036.9,030.2,30.7,0000.0,0019.45,0007.57,0005.62
2023-07-19 00:28:00,SystemResetWarning,0832.7,5.00,000.00,028.6,027.1,000.0,036.9,030.3,30.6,0000.0,0018.38,0007.53,0005.59
2023-07-19 00:29:00,SystemResetWarning,0832.7,5.00,000.00,028.6,027.4,000.0,036.9,030.4,30.6,0000.0,0018.22,0007.39,0005.57
2023-07-19 00:30:00,SystemResetWarning,0832.7,5.00,000.00,028.7,027.5,000.0,036.9,030.5,30.3,0000.0,0018.39,0007.27,0005.55
2023-07-19 00:31:00,SystemResetWarning,0832.6,4.98,000.00,028.7,026.3,000.0,036.9,030.3,30.1,0000.0,0018.24,0007.19,0005.53
2023-07-19 00:32:00,SystemResetWarning,0832.7,5.01,000.00,028.6,024.8,000.0,036.8,030.1,30.1,0000.0,0017.76,0007.09,0005.51
2023-07-19 00:33:00,SystemResetWarning,0832.7,5.00,000.00,028.6,024.6,000.0,036.7,029.9,30.5,0000.0,0017.26,0007.00,0005.48
2023-07-19 00:34:00,SystemResetWarning,0832.7,5.01,000.00,028.5,024.9,000.0,036.8,029.8,30.4,0000.0,0017.11,0006.86,0005.46
2023-07-19 00:35:00,SystemResetWarning,0832.7,5.00,000.00,028.5,025.4,000.0,036.8,029.9,30.3,0000.0,0017.50,0006.84,0005.44
2023-07-19 00:36:00,SystemResetWarning,0832.7,4.99,000.00,028.5,025.9,000.0,036.8,030.0,30.4,0000.0,0017.08,0006.78,0005.41
2023-07-19 00:37:00,SystemResetWarning,0832.7,5.00,000.00,028.5,026.3,000.0,036.9,030.1,30.3,0000.0,0016.66,0006.71,0005.39
2023-07-19 00:38:00,SystemResetWarning,0832.7,5.01,000.00,028.5,026.7,000.0,036.9,030.2,30.2,0000.0,0016.72,0006.64,0005.38
2023-07-19 00:39:00,SystemResetWarning,0832.7,5.00,000.00,028.6,027.0,000.0,036.9,030.3,30.2,0000.0,0017.35,0006.62,0005.37
2023-07-19 00:40:00,SystemResetWarning,0832.6,5.00,000.00,028.6,027.3,000.0,036.9,030.4,30.3,0000.0,0017.37,0006.65,0005.36
2023-07-19 00:41:00,SystemResetWarning,0832.6,4.99,000.00,028.7,027.2,000.0,036.9,030.4,30.5,0000.0,0016.32,0006.58,0005.37
2023-07-19 00:42:00,SystemResetWarning,0832.5,4.99,000.00,028.6,025.6,000.0,036.8,030.1,30.0,0000.0,0015.74,0006.54,0005.35
2023-07-19 00:43:00,SystemResetWarning,0832.5,5.01,000.00,028.6,024.5,000.0,036.7,029.9,30.3,0000.0,0015.47,0006.49,0005.34
2023-07-19 00:44:00,SystemResetWarning,0832.5,5.02,000.00,028.5,024.6,000.0,036.7,029.8,30.8,0001.3,0015.60,0006.51,0005.34
2023-07-19 00:45:00,SystemResetWarning,0832.6,5.00,000.00,028.4,025.0,000.0,036.8,029.8,30.5,0001.3,0015.55,0006.62,0005.35
2023-07-19 00:46:00,SystemResetWarning,0832.5,4.99,000.00,028.4,025.5,000.0,036.8,029.9,30.6,0000.3,0015.63,0006.63,0005.36
2023-07-19 00:47:00,SystemResetWarning,0832.5,5.00,000.00,028.4,026.0,000.0,036.8,030.0,30.4,0000.0,0015.40,0006.69,0005.38
2023-07-19 00:48:00,SystemResetWarning,0832.6,5.01,000.00,028.5,026.4,000.0,036.8,030.1,30.5,0000.0,0015.17,0006.69,0005.38
2023-07-19 00:49:00,SystemResetWarning,0832.6,5.00,000.00,028.5,026.8,000.0,036.9,030.2,30.0,0000.0,0014.96,0006.69,0005.38
2023-07-19 00:50:00,SystemResetWarning,0832.6,4.99,000.00,028.6,027.1,000.0,036.9,030.3,30.2,0000.0,0014.71,0006.68,0005.40
2023-07-19 00:51:00,SystemResetWarning,0832.6,4.99,000.00,028.6,027.4,000.0,036.9,030.4,30.2,0000.0,0013.73,0006.69,0005.42
2023-07-19 00:52:00,SystemResetWarning,0832.7,5.00,000.00,028.6,026.8,000.0,036.9,030.3,30.0,0000.0,0013.64,0006.71,0005.42
2023-07-19 00:53:00,SystemResetWarning,0832.6,5.00,000.00,028.6,025.1,000.0,036.8,030.1,30.2,0000.0,0014.10,0006.76,0005.41
2023-07-19 00:54:00,SystemResetWarning,0832.7,5.01,000.00,028.5,024.5,000.0,036.7,029.9,30.4,0000.0,0014.68,0006.84,0005.43
2023-07-19 00:55:00,SystemResetWarning,0832.6,5.01,000.00,028.4,024.7,000.0,036.7,029.8,30.4,0000.0,0014.81,0006.84,0005.44
2023-07-19 00:56:00,SystemResetWarning,0832.7,4.99,000.00,028.4,025.2,000.0,036.8,029.8,30.9,0000.0,0014.86,0006.78,0005.45
2023-07-19 00:57:00,SystemResetWarning,0832.7,5.00,000.00,028.4,025.7,000.0,036.8,029.9,31.0,0000.0,0014.36,0006.74,0005.44
2023-07-19 00:58:00,SystemResetWarning,0832.7,5.01,000.00,028.4,026.1,000.0,036.8,030.0,31.0,0000.0,0014.56,0006.68,0005.42
2023-07-19 00:59:00,SystemResetWarning,0832.7,5.00,000.00,028.4,026.5,000.0,036.8,030.1,31.0,0000.0,0015.14,0006.63,0005.43
